Regional Weather Roundup
Issued by NWS

Home | Current Version | Previous Version | Text Only | Print | Product List | Glossary On
Versions: 1 2 3 4 5 6 7 8 9 10 11 12 13 14 15 16 17 18 19 20 21 22 23 24 25 26 27 28 29 30 31 32 33 34 35 36 37 38 39 40 41 42 43 44 45 46 47 48 49 50
540
ASPQ40 PGUM 232112
RWRPQ
WEATHER ROUNDUP FOR THE MARIANAS AND MICRONESIA
NATIONAL WEATHER SERVICE TIYAN GU
700 AM CHST WED JAN 24 2018

GUZ001>004-232200-
MARIANA ISLANDS-

CITY           SKY/WX    TMP DP  RH WIND       PRES   REMARKS
GUAM AIRPORT   PTCLDY    79  75  89 NE10      29.84R
ANDERSEN AFB   MOCLDY    77  73  88 NE9       29.84R
ROTA AIRPORT   RAIN      75  73  94 NE12G17   29.84R FOG
TINIAN AP      MOCLDY    77  72  83 NE13      29.83R
SAIPAN AP      CLOUDY    79  73  83 NE13G23   29.84R

$$

PMZ161-232200-
REPUBLIC OF PALAU-

CITY           SKY/WX    TMP DP  RH WIND       PRES   REMARKS
KOROR AP       MOCLDY    77  73  88 CALM      29.74R
KOROR WSO      MOCLDY    81  75  83 CALM      29.74R

$$

PMZ171>174-232200-
FEDERATED STATES OF MICRONESIA-

CITY           SKY/WX    TMP DP  RH WIND       PRES   REMARKS
YAP AIRPORT    CLOUDY    79  77  94 VRB6      29.75R
CHUUK AP       CLOUDY    82  79  89 NE9       29.72R HX  93
POHNPEI AP     NOT AVBL
POHNPEI WSO    CLOUDY    82  75  78 NE12      29.74R
KOSRAE AP      NOT AVBL

$$

PMZ181-232200-
REPUBLIC OF THE MARSHALL ISLANDS-

CITY           SKY/WX    TMP DP  RH WIND       PRES   REMARKS
KWAJALEIN AP   MOSUNNY   82  77  83 NE18      29.73R HX  91
MAJURO AP      PTSUNNY   84  79  84 NE17      29.72S HX  96
MAJURO WSO     PTSUNNY   84  77  79 E15       29.70R HX  94

$$





USA.gov is the U.S. government's official web portal to all federal, state and local government web resources and services.